Year,Month,Day,Hour,Minute,Value (Times are PST for temperature in C)
2013,06,15,00,00,10.80
2013,06,15,00,01,10.80
2013,06,15,00,02,10.80
2013,06,15,00,03,10.80
2013,06,15,00,04,10.80
2013,06,15,00,05,10.70
2013,06,15,00,06,10.70
2013,06,15,00,07,10.70
2013,06,15,00,08,10.70
2013,06,15,00,09,10.70
2013,06,15,00,10,10.60
2013,06,15,00,11,10.60
2013,06,15,00,12,10.60
2013,06,15,00,13,10.60
2013,06,15,00,14,10.60
2013,06,15,00,15,10.60
2013,06,15,00,16,10.60
2013,06,15,00,17,10.50
2013,06,15,00,18,10.50
2013,06,15,00,19,10.50
2013,06,15,00,20,10.50
2013,06,15,00,21,10.40
2013,06,15,00,22,10.40
2013,06,15,00,23,10.40
2013,06,15,00,24,10.40
2013,06,15,00,25,10.40
2013,06,15,00,26,10.40
2013,06,15,00,27,10.40
2013,06,15,00,28,10.40
2013,06,15,00,29,10.30
2013,06,15,00,30,10.30
2013,06,15,00,31,10.30
2013,06,15,00,32,10.30
2013,06,15,00,33,10.30
2013,06,15,00,34,10.30
2013,06,15,00,35,10.30
2013,06,15,00,36,10.30
2013,06,15,00,37,10.30
2013,06,15,00,38,10.30
2013,06,15,00,39,10.20
2013,06,15,00,40,10.20
2013,06,15,00,41,10.20
2013,06,15,00,42,10.20
2013,06,15,00,43,10.20
2013,06,15,00,44,10.20
2013,06,15,00,45,10.20
2013,06,15,00,46,10.10
2013,06,15,00,47,10.10
2013,06,15,00,48,10.10
2013,06,15,00,49,10.10
2013,06,15,00,50,10.10
2013,06,15,00,51,10.10
2013,06,15,00,52,10.00
2013,06,15,00,53,10.00
2013,06,15,00,54,10.00
2013,06,15,00,55,10.00
2013,06,15,00,56,10.00
2013,06,15,00,57,9.90
2013,06,15,00,58,9.90
2013,06,15,00,59,9.90
2013,06,15,01,00,9.90
2013,06,15,01,01,9.90
2013,06,15,01,02,9.90
2013,06,15,01,03,9.90
2013,06,15,01,04,9.90
2013,06,15,01,05,9.80
2013,06,15,01,06,9.80
2013,06,15,01,07,9.80
2013,06,15,01,08,9.80
2013,06,15,01,09,9.80
2013,06,15,01,10,9.80
2013,06,15,01,11,9.80
2013,06,15,01,12,9.80
2013,06,15,01,13,9.80
2013,06,15,01,14,9.80
2013,06,15,01,15,9.80
2013,06,15,01,16,9.80
2013,06,15,01,17,9.80
2013,06,15,01,18,9.80
2013,06,15,01,19,9.80
2013,06,15,01,20,9.80
2013,06,15,01,21,9.80
2013,06,15,01,22,9.80
2013,06,15,01,23,9.70
2013,06,15,01,24,9.70
2013,06,15,01,25,9.70
2013,06,15,01,26,9.70
2013,06,15,01,27,9.70
2013,06,15,01,28,9.70
2013,06,15,01,29,9.70
2013,06,15,01,30,9.70
2013,06,15,01,31,9.70
2013,06,15,01,32,9.70
2013,06,15,01,33,9.70
2013,06,15,01,34,9.60
2013,06,15,01,35,9.60
2013,06,15,01,36,9.60
2013,06,15,01,37,9.60
2013,06,15,01,38,9.60
2013,06,15,01,39,9.60
2013,06,15,01,40,9.60
2013,06,15,01,41,9.60
2013,06,15,01,42,9.60
2013,06,15,01,43,9.60
2013,06,15,01,44,9.50
2013,06,15,01,45,9.50
2013,06,15,01,46,9.50
2013,06,15,01,47,9.50
2013,06,15,01,48,9.50
2013,06,15,01,49,9.50
2013,06,15,01,50,9.50
2013,06,15,01,51,9.50
2013,06,15,01,52,9.50
2013,06,15,01,53,9.50
2013,06,15,01,54,9.50
2013,06,15,01,55,9.50
2013,06,15,01,56,9.40
2013,06,15,01,57,9.40
2013,06,15,01,58,9.40
2013,06,15,01,59,9.40
2013,06,15,02,00,9.40
2013,06,15,02,01,9.40
2013,06,15,02,02,9.40
2013,06,15,02,03,9.40
2013,06,15,02,04,9.40
2013,06,15,02,05,9.40
2013,06,15,02,06,9.40
2013,06,15,02,07,9.40
2013,06,15,02,08,9.40
2013,06,15,02,09,9.40
2013,06,15,02,10,9.40
2013,06,15,02,11,9.40
2013,06,15,02,12,9.30
2013,06,15,02,13,9.30
2013,06,15,02,14,9.30
2013,06,15,02,15,9.30
2013,06,15,02,16,9.30
2013,06,15,02,17,9.30
2013,06,15,02,18,9.30
2013,06,15,02,19,9.30
2013,06,15,02,20,9.20
2013,06,15,02,21,9.20
2013,06,15,02,22,9.20
2013,06,15,02,23,9.20
2013,06,15,02,24,9.20
2013,06,15,02,25,9.20
2013,06,15,02,26,9.20
2013,06,15,02,27,9.20
2013,06,15,02,28,9.20
2013,06,15,02,29,9.10
2013,06,15,02,30,9.10
2013,06,15,02,31,9.10
2013,06,15,02,32,9.10
2013,06,15,02,33,9.10
2013,06,15,02,34,9.10
2013,06,15,02,35,9.10
2013,06,15,02,36,9.00
2013,06,15,02,37,9.00
2013,06,15,02,38,9.00
2013,06,15,02,39,9.00
2013,06,15,02,40,9.00
2013,06,15,02,41,9.00
2013,06,15,02,42,8.90
2013,06,15,02,43,8.90
2013,06,15,02,44,8.90
2013,06,15,02,45,8.90
2013,06,15,02,46,8.90
2013,06,15,02,47,8.90
2013,06,15,02,48,8.90
2013,06,15,02,49,8.90
2013,06,15,02,50,8.90
2013,06,15,02,51,8.80
2013,06,15,02,52,8.80
2013,06,15,02,53,8.80
2013,06,15,02,54,8.80
2013,06,15,02,55,8.80
2013,06,15,02,56,8.80
2013,06,15,02,57,8.80
2013,06,15,02,58,8.80
2013,06,15,02,59,8.80
2013,06,15,03,00,8.80
2013,06,15,03,01,8.80
2013,06,15,03,02,8.80
2013,06,15,03,03,8.80
2013,06,15,03,04,8.80
2013,06,15,03,05,8.80
2013,06,15,03,06,8.80
2013,06,15,03,07,8.80
2013,06,15,03,08,8.80
2013,06,15,03,09,8.80
2013,06,15,03,10,8.80
2013,06,15,03,11,8.80
2013,06,15,03,12,8.80
2013,06,15,03,13,8.80
2013,06,15,03,14,8.80
2013,06,15,03,15,8.80
2013,06,15,03,16,8.80
2013,06,15,03,17,8.70
2013,06,15,03,18,8.70
2013,06,15,03,19,8.70
2013,06,15,03,20,8.70
2013,06,15,03,21,8.70
2013,06,15,03,22,8.70
2013,06,15,03,23,8.70
2013,06,15,03,24,8.70
2013,06,15,03,25,8.70
2013,06,15,03,26,8.70
2013,06,15,03,27,8.70
2013,06,15,03,28,8.70
2013,06,15,03,29,8.70
2013,06,15,03,30,8.70
2013,06,15,03,31,8.70
2013,06,15,03,32,8.70
2013,06,15,03,33,8.70
2013,06,15,03,34,8.70
2013,06,15,03,35,8.70
2013,06,15,03,36,8.70
2013,06,15,03,37,8.70
2013,06,15,03,38,8.70
2013,06,15,03,39,8.70
2013,06,15,03,40,8.80
2013,06,15,03,41,8.80
2013,06,15,03,42,8.70
2013,06,15,03,43,8.80
2013,06,15,03,44,8.80
2013,06,15,03,45,8.80
2013,06,15,03,46,8.80
2013,06,15,03,47,8.80
2013,06,15,03,48,8.80
2013,06,15,03,49,8.80
2013,06,15,03,50,8.80
2013,06,15,03,51,8.80
2013,06,15,03,52,8.80
2013,06,15,03,53,8.80
2013,06,15,03,54,8.80
2013,06,15,03,55,8.80
2013,06,15,03,56,8.80
2013,06,15,03,57,8.80
2013,06,15,03,58,8.80
2013,06,15,03,59,8.80
2013,06,15,04,00,8.80
2013,06,15,04,01,8.80
2013,06,15,04,02,8.80
2013,06,15,04,03,8.80
2013,06,15,04,04,8.80
2013,06,15,04,05,8.80
2013,06,15,04,06,8.80
2013,06,15,04,07,8.80
2013,06,15,04,08,8.80
2013,06,15,04,09,8.80
2013,06,15,04,10,8.80
2013,06,15,04,11,8.90
2013,06,15,04,12,8.90
2013,06,15,04,13,8.80
2013,06,15,04,14,8.80
2013,06,15,04,15,8.80
2013,06,15,04,16,8.80
2013,06,15,04,17,8.80
2013,06,15,04,18,8.80
2013,06,15,04,19,8.80
2013,06,15,04,20,8.80
2013,06,15,04,21,8.80
2013,06,15,04,22,8.80
2013,06,15,04,23,8.80
2013,06,15,04,24,8.80
2013,06,15,04,25,8.80
2013,06,15,04,26,8.80
2013,06,15,04,27,8.80
2013,06,15,04,28,8.80
2013,06,15,04,29,8.80
2013,06,15,04,30,8.80
2013,06,15,04,31,8.80
2013,06,15,04,32,8.80
2013,06,15,04,33,8.80
2013,06,15,04,34,8.80
2013,06,15,04,35,8.80
2013,06,15,04,36,8.80
2013,06,15,04,37,8.80
2013,06,15,04,38,8.80
2013,06,15,04,39,8.80
2013,06,15,04,40,8.80
2013,06,15,04,41,8.70
2013,06,15,04,42,8.70
2013,06,15,04,43,8.70
2013,06,15,04,44,8.70
2013,06,15,04,45,8.70
2013,06,15,04,46,8.70
2013,06,15,04,47,8.70
2013,06,15,04,48,8.70
2013,06,15,04,49,8.70
2013,06,15,04,50,8.70
2013,06,15,04,51,8.70
2013,06,15,04,52,8.70
2013,06,15,04,53,8.70
2013,06,15,04,54,8.70
2013,06,15,04,55,8.70
2013,06,15,04,56,8.70
2013,06,15,04,57,8.60
2013,06,15,04,58,8.60
2013,06,15,04,59,8.60
2013,06,15,05,00,8.60
2013,06,15,05,01,8.60
2013,06,15,05,02,8.60
2013,06,15,05,03,8.60
2013,06,15,05,04,8.60
2013,06,15,05,05,8.60
2013,06,15,05,06,8.60
2013,06,15,05,07,8.60
2013,06,15,05,08,8.60
2013,06,15,05,09,8.60
2013,06,15,05,10,8.60
2013,06,15,05,11,8.60
2013,06,15,05,12,8.60
2013,06,15,05,13,8.60
2013,06,15,05,14,8.60
2013,06,15,05,15,8.60
2013,06,15,05,16,8.60
2013,06,15,05,17,8.60
2013,06,15,05,18,8.60
2013,06,15,05,19,8.60
2013,06,15,05,20,8.60
2013,06,15,05,21,8.60
2013,06,15,05,22,8.60
2013,06,15,05,23,8.60
2013,06,15,05,24,8.60
2013,06,15,05,25,8.60
2013,06,15,05,26,8.60
2013,06,15,05,27,8.60
2013,06,15,05,28,8.60
2013,06,15,05,29,8.60
2013,06,15,05,30,8.60
2013,06,15,05,31,8.60
2013,06,15,05,32,8.60
2013,06,15,05,33,8.60
2013,06,15,05,34,8.60
2013,06,15,05,35,8.60
2013,06,15,05,36,8.60
2013,06,15,05,37,8.60
2013,06,15,05,38,8.70
2013,06,15,05,39,8.70
2013,06,15,05,40,8.70
2013,06,15,05,41,8.70
2013,06,15,05,42,8.70
2013,06,15,05,43,8.70
2013,06,15,05,44,8.70
2013,06,15,05,45,8.70
2013,06,15,05,46,8.70
2013,06,15,05,47,8.70
2013,06,15,05,48,8.80
2013,06,15,05,49,8.80
2013,06,15,05,50,8.80
2013,06,15,05,51,8.80
2013,06,15,05,52,8.80
2013,06,15,05,53,8.80
2013,06,15,05,54,8.80
2013,06,15,05,55,8.80
2013,06,15,05,56,8.80
2013,06,15,05,57,8.90
2013,06,15,05,58,8.90
2013,06,15,05,59,8.90
2013,06,15,06,00,8.90
2013,06,15,06,01,8.90
2013,06,15,06,02,9.00
2013,06,15,06,03,9.00
2013,06,15,06,04,9.00
2013,06,15,06,05,9.10
2013,06,15,06,06,9.10
2013,06,15,06,07,9.20
2013,06,15,06,08,9.20
2013,06,15,06,09,9.30
2013,06,15,06,10,9.30
2013,06,15,06,11,9.30
2013,06,15,06,12,9.30
2013,06,15,06,13,9.40
2013,06,15,06,14,9.40
2013,06,15,06,15,9.40
2013,06,15,06,16,9.50
2013,06,15,06,17,9.50
2013,06,15,06,18,9.60
2013,06,15,06,19,9.60
2013,06,15,06,20,9.60
2013,06,15,06,21,9.70
2013,06,15,06,22,9.70
2013,06,15,06,23,9.70
2013,06,15,06,24,9.80
2013,06,15,06,25,9.80
2013,06,15,06,26,9.80
2013,06,15,06,27,9.90
2013,06,15,06,28,9.90
2013,06,15,06,29,10.00
2013,06,15,06,30,10.00
2013,06,15,06,31,10.10
2013,06,15,06,32,10.10
2013,06,15,06,33,10.20
2013,06,15,06,34,10.20
2013,06,15,06,35,10.30
2013,06,15,06,36,10.30
2013,06,15,06,37,10.30
2013,06,15,06,38,10.40
2013,06,15,06,39,10.40
2013,06,15,06,40,10.50
2013,06,15,06,41,10.50
2013,06,15,06,42,10.60
2013,06,15,06,43,10.60
2013,06,15,06,44,10.70
2013,06,15,06,45,10.70
2013,06,15,06,46,10.70
2013,06,15,06,47,10.80
2013,06,15,06,48,10.80
2013,06,15,06,49,10.90
2013,06,15,06,50,11.00
2013,06,15,06,51,11.00
2013,06,15,06,52,11.10
2013,06,15,06,53,11.10
2013,06,15,06,54,11.20
2013,06,15,06,55,11.20
2013,06,15,06,56,11.30
2013,06,15,06,57,11.40
2013,06,15,06,58,11.40
2013,06,15,06,59,11.40
2013,06,15,07,00,11.50
2013,06,15,07,01,11.60
2013,06,15,07,02,11.60
2013,06,15,07,03,11.70
2013,06,15,07,04,11.70
2013,06,15,07,05,11.80
2013,06,15,07,06,11.80
2013,06,15,07,07,11.90
2013,06,15,07,08,11.90
2013,06,15,07,09,12.00
2013,06,15,07,10,12.10
2013,06,15,07,11,12.10
2013,06,15,07,12,12.20
2013,06,15,07,13,12.30
2013,06,15,07,14,12.30
2013,06,15,07,15,12.40
2013,06,15,07,16,12.40
2013,06,15,07,17,12.50
2013,06,15,07,18,12.60
2013,06,15,07,19,12.70
2013,06,15,07,20,12.80
2013,06,15,07,21,12.80
2013,06,15,07,22,12.90
2013,06,15,07,23,13.00
2013,06,15,07,24,13.10
2013,06,15,07,25,13.20
2013,06,15,07,26,13.30
2013,06,15,07,27,13.40
2013,06,15,07,28,13.50
2013,06,15,07,29,13.50
2013,06,15,07,30,13.60
2013,06,15,07,31,13.70
2013,06,15,07,32,13.70
2013,06,15,07,33,13.80
2013,06,15,07,34,13.80
2013,06,15,07,35,13.90
2013,06,15,07,36,13.90
2013,06,15,07,37,14.00
2013,06,15,07,38,14.00
2013,06,15,07,39,14.10
2013,06,15,07,40,14.10
2013,06,15,07,41,14.20
2013,06,15,07,42,14.30
2013,06,15,07,43,14.30
2013,06,15,07,44,14.40
2013,06,15,07,45,14.50
2013,06,15,07,46,14.60
2013,06,15,07,47,14.60
2013,06,15,07,48,14.70
2013,06,15,07,49,14.80
2013,06,15,07,50,14.80
2013,06,15,07,51,14.90
2013,06,15,07,52,14.90
2013,06,15,07,53,15.00
2013,06,15,07,54,15.10
2013,06,15,07,55,15.20
2013,06,15,07,56,15.30
2013,06,15,07,57,15.40
2013,06,15,07,58,15.50
2013,06,15,07,59,15.50
2013,06,15,08,00,15.60
2013,06,15,08,01,15.60
2013,06,15,08,02,15.70
2013,06,15,08,03,15.70
2013,06,15,08,04,15.70
2013,06,15,08,05,15.80
2013,06,15,08,06,15.80
2013,06,15,08,07,15.80
2013,06,15,08,08,15.90
2013,06,15,08,09,15.90
2013,06,15,08,10,15.90
2013,06,15,08,11,15.90
2013,06,15,08,12,16.00
2013,06,15,08,13,16.00
2013,06,15,08,14,16.00
2013,06,15,08,15,16.10
2013,06,15,08,16,16.10
2013,06,15,08,17,16.10
2013,06,15,08,18,16.10
2013,06,15,08,19,16.10
2013,06,15,08,20,16.10
2013,06,15,08,21,16.20
2013,06,15,08,22,16.20
2013,06,15,08,23,16.20
2013,06,15,08,24,16.20
2013,06,15,08,25,16.30
2013,06,15,08,26,16.30
2013,06,15,08,27,16.30
2013,06,15,08,28,16.40
2013,06,15,08,29,16.40
2013,06,15,08,30,16.50
2013,06,15,08,31,16.60
2013,06,15,08,32,16.60
2013,06,15,08,33,16.60
2013,06,15,08,34,16.60
2013,06,15,08,35,16.50
2013,06,15,08,36,16.40
2013,06,15,08,37,16.40
2013,06,15,08,38,16.40
2013,06,15,08,39,16.40
2013,06,15,08,40,16.40
2013,06,15,08,41,16.30
2013,06,15,08,42,16.30
2013,06,15,08,43,16.30
2013,06,15,08,44,16.20
2013,06,15,08,45,16.10
2013,06,15,08,46,16.10
2013,06,15,08,47,16.00
2013,06,15,08,48,15.90
2013,06,15,08,49,15.90
2013,06,15,08,50,15.90
2013,06,15,08,51,15.80
2013,06,15,08,52,15.80
2013,06,15,08,53,15.90
2013,06,15,08,54,16.00
2013,06,15,08,55,16.10
2013,06,15,08,56,16.10
2013,06,15,08,57,16.20
2013,06,15,08,58,16.10
2013,06,15,08,59,16.10
2013,06,15,09,00,16.10
2013,06,15,09,01,16.00
2013,06,15,09,02,16.00
2013,06,15,09,03,16.00
2013,06,15,09,04,16.00
2013,06,15,09,05,16.00
2013,06,15,09,06,16.00
2013,06,15,09,07,15.90
2013,06,15,09,08,15.90
2013,06,15,09,09,15.90
2013,06,15,09,10,15.90
2013,06,15,09,11,15.90
2013,06,15,09,12,15.90
2013,06,15,09,13,15.90
2013,06,15,09,14,15.90
2013,06,15,09,15,16.00
2013,06,15,09,16,16.10
2013,06,15,09,17,16.20
2013,06,15,09,18,16.30
2013,06,15,09,19,16.30
2013,06,15,09,20,16.30
2013,06,15,09,21,16.30
2013,06,15,09,22,16.20
2013,06,15,09,23,16.10
2013,06,15,09,24,16.10
2013,06,15,09,25,16.20
2013,06,15,09,26,16.30
2013,06,15,09,27,16.40
2013,06,15,09,28,16.40
2013,06,15,09,29,16.50
2013,06,15,09,30,16.50
2013,06,15,09,31,16.60
2013,06,15,09,32,16.60
2013,06,15,09,33,16.60
2013,06,15,09,34,16.70
2013,06,15,09,35,16.60
2013,06,15,09,36,16.50
2013,06,15,09,37,16.30
2013,06,15,09,38,16.20
2013,06,15,09,39,16.00
2013,06,15,09,40,16.00
2013,06,15,09,41,15.90
2013,06,15,09,42,15.90
2013,06,15,09,43,15.90
2013,06,15,09,44,16.00
2013,06,15,09,45,15.90
2013,06,15,09,46,15.90
2013,06,15,09,47,15.90
2013,06,15,09,48,16.00
2013,06,15,09,49,16.00
2013,06,15,09,50,16.00
2013,06,15,09,51,16.00
2013,06,15,09,52,16.00
2013,06,15,09,53,16.10
2013,06,15,09,54,16.10
2013,06,15,09,55,16.00
2013,06,15,09,56,16.10
2013,06,15,09,57,16.10
2013,06,15,09,58,16.20
2013,06,15,09,59,16.20
2013,06,15,10,00,16.30
2013,06,15,10,01,16.30
2013,06,15,10,02,16.30
2013,06,15,10,03,16.40
2013,06,15,10,04,16.40
2013,06,15,10,05,16.40
2013,06,15,10,06,16.30
2013,06,15,10,07,16.30
2013,06,15,10,08,16.30
2013,06,15,10,09,16.40
2013,06,15,10,10,16.40
2013,06,15,10,11,16.50
2013,06,15,10,12,16.50
2013,06,15,10,13,16.50
2013,06,15,10,14,16.50
2013,06,15,10,15,16.50
2013,06,15,10,16,16.50
2013,06,15,10,17,16.50
2013,06,15,10,18,16.40
2013,06,15,10,19,16.50
2013,06,15,10,20,16.50
2013,06,15,10,21,16.50
2013,06,15,10,22,16.50
2013,06,15,10,23,16.50
2013,06,15,10,24,16.50
2013,06,15,10,25,16.40
2013,06,15,10,26,16.40
2013,06,15,10,27,16.50
2013,06,15,10,28,16.50
2013,06,15,10,29,16.60
2013,06,15,10,30,16.60
2013,06,15,10,31,16.60
2013,06,15,10,32,16.60
2013,06,15,10,33,16.60
2013,06,15,10,34,16.60
2013,06,15,10,35,16.60
2013,06,15,10,36,16.60
2013,06,15,10,37,16.60
2013,06,15,10,38,16.70
2013,06,15,10,39,16.60
2013,06,15,10,40,16.60
2013,06,15,10,41,16.60
2013,06,15,10,42,16.60
2013,06,15,10,43,16.50
2013,06,15,10,44,16.40
2013,06,15,10,45,16.40
2013,06,15,10,46,16.30
2013,06,15,10,47,16.30
2013,06,15,10,48,16.30
2013,06,15,10,49,16.40
2013,06,15,10,50,16.40
2013,06,15,10,51,16.40
2013,06,15,10,52,16.40
2013,06,15,10,53,16.50
2013,06,15,10,54,16.50
2013,06,15,10,55,16.40
2013,06,15,10,56,16.40
2013,06,15,10,57,16.40
2013,06,15,10,58,16.40
2013,06,15,10,59,16.40
2013,06,15,11,00,16.40
2013,06,15,11,01,16.40
2013,06,15,11,02,16.40
2013,06,15,11,03,16.50
2013,06,15,11,04,16.60
2013,06,15,11,05,16.60
2013,06,15,11,06,16.70
2013,06,15,11,07,16.70
2013,06,15,11,08,16.80
2013,06,15,11,09,16.80
2013,06,15,11,10,16.80
2013,06,15,11,11,16.80
2013,06,15,11,12,16.80
2013,06,15,11,13,16.80
2013,06,15,11,14,16.80
2013,06,15,11,15,16.90
2013,06,15,11,16,16.90
2013,06,15,11,17,16.90
2013,06,15,11,18,17.00
2013,06,15,11,19,17.00
2013,06,15,11,20,17.00
2013,06,15,11,21,17.00
2013,06,15,11,22,16.90
2013,06,15,11,23,16.90
2013,06,15,11,24,16.90
2013,06,15,11,25,16.90
2013,06,15,11,26,16.90
2013,06,15,11,27,16.90
2013,06,15,11,28,16.80
2013,06,15,11,29,16.80
2013,06,15,11,30,16.80
2013,06,15,11,31,16.80
2013,06,15,11,32,16.80
2013,06,15,11,33,16.80
2013,06,15,11,34,16.90
2013,06,15,11,35,17.00
2013,06,15,11,36,17.10
2013,06,15,11,37,17.10
2013,06,15,11,38,17.00
2013,06,15,11,39,16.90
2013,06,15,11,40,16.80
2013,06,15,11,41,16.80
2013,06,15,11,42,16.80
2013,06,15,11,43,16.80
2013,06,15,11,44,16.80
2013,06,15,11,45,16.80
2013,06,15,11,46,16.80
2013,06,15,11,47,16.80
2013,06,15,11,48,16.80
2013,06,15,11,49,16.90
2013,06,15,11,50,16.80
2013,06,15,11,51,16.90
2013,06,15,11,52,16.90
2013,06,15,11,53,17.00
2013,06,15,11,54,17.00
2013,06,15,11,55,17.10
2013,06,15,11,56,17.10
2013,06,15,11,57,17.20
2013,06,15,11,58,17.30
2013,06,15,11,59,17.40
2013,06,15,12,00,17.40
2013,06,15,12,01,17.50
2013,06,15,12,02,17.50
2013,06,15,12,03,17.60
2013,06,15,12,04,17.70
2013,06,15,12,05,17.70
2013,06,15,12,06,17.70
2013,06,15,12,07,17.70
2013,06,15,12,08,17.70
2013,06,15,12,09,17.80
2013,06,15,12,10,17.80
2013,06,15,12,11,17.80
2013,06,15,12,12,17.80
2013,06,15,12,13,17.80
2013,06,15,12,14,17.70
2013,06,15,12,15,17.70
2013,06,15,12,16,17.60
2013,06,15,12,17,17.60
2013,06,15,12,18,17.60
2013,06,15,12,19,17.60
2013,06,15,12,20,17.60
2013,06,15,12,21,17.60
2013,06,15,12,22,17.60
2013,06,15,12,23,17.60
2013,06,15,12,24,17.50
2013,06,15,12,25,17.50
2013,06,15,12,26,17.50
2013,06,15,12,27,17.50
2013,06,15,12,28,17.60
2013,06,15,12,29,17.60
2013,06,15,12,30,17.70
2013,06,15,12,31,17.70
2013,06,15,12,32,17.70
2013,06,15,12,33,17.80
2013,06,15,12,34,17.90
2013,06,15,12,35,18.00
2013,06,15,12,36,18.10
2013,06,15,12,37,18.10
2013,06,15,12,38,18.10
2013,06,15,12,39,18.00
2013,06,15,12,40,17.90
2013,06,15,12,41,17.90
2013,06,15,12,42,17.90
2013,06,15,12,43,17.90
2013,06,15,12,44,17.90
2013,06,15,12,45,17.80
2013,06,15,12,46,17.80
2013,06,15,12,47,17.80
2013,06,15,12,48,17.80
2013,06,15,12,49,17.80
2013,06,15,12,50,17.80
2013,06,15,12,51,17.80
2013,06,15,12,52,17.80
2013,06,15,12,53,17.70
2013,06,15,12,54,17.70
2013,06,15,12,55,17.70
2013,06,15,12,56,17.70
2013,06,15,12,57,17.80
2013,06,15,12,58,17.80
2013,06,15,12,59,17.90
2013,06,15,13,00,17.90
2013,06,15,13,01,18.00
2013,06,15,13,02,18.00
2013,06,15,13,03,18.10
2013,06,15,13,04,18.20
2013,06,15,13,05,18.20
2013,06,15,13,06,18.20
2013,06,15,13,07,18.20
2013,06,15,13,08,18.20
2013,06,15,13,09,18.10
2013,06,15,13,10,18.10
2013,06,15,13,11,18.10
2013,06,15,13,12,18.10
2013,06,15,13,13,18.10
2013,06,15,13,14,18.00
2013,06,15,13,15,18.10
2013,06,15,13,16,18.00
2013,06,15,13,17,18.00
2013,06,15,13,18,18.00
2013,06,15,13,19,18.00
2013,06,15,13,20,18.00
2013,06,15,13,21,18.00
2013,06,15,13,22,18.10
2013,06,15,13,23,18.10
2013,06,15,13,24,18.00
2013,06,15,13,25,18.00
2013,06,15,13,26,17.90
2013,06,15,13,27,17.90
2013,06,15,13,28,17.80
2013,06,15,13,29,17.90
2013,06,15,13,30,18.00
2013,06,15,13,31,18.00
2013,06,15,13,32,18.10
2013,06,15,13,33,18.20
2013,06,15,13,34,18.20
2013,06,15,13,35,18.20
2013,06,15,13,36,18.20
2013,06,15,13,37,18.10
2013,06,15,13,38,18.10
2013,06,15,13,39,18.00
2013,06,15,13,40,18.00
2013,06,15,13,41,17.90
2013,06,15,13,42,17.90
2013,06,15,13,43,17.90
2013,06,15,13,44,17.90
2013,06,15,13,45,17.90
2013,06,15,13,46,17.90
2013,06,15,13,47,17.90
2013,06,15,13,48,18.00
2013,06,15,13,49,18.00
2013,06,15,13,50,18.10
2013,06,15,13,51,18.20
2013,06,15,13,52,18.20
2013,06,15,13,53,18.30
2013,06,15,13,54,18.30
2013,06,15,13,55,18.30
2013,06,15,13,56,18.40
2013,06,15,13,57,18.40
2013,06,15,13,58,18.50
2013,06,15,13,59,18.60
2013,06,15,14,00,18.70
2013,06,15,14,01,18.80
2013,06,15,14,02,18.80
2013,06,15,14,03,18.80
2013,06,15,14,04,18.70
2013,06,15,14,05,18.70
2013,06,15,14,06,18.60
2013,06,15,14,07,18.60
2013,06,15,14,08,18.60
2013,06,15,14,09,18.60
2013,06,15,14,10,18.70
2013,06,15,14,11,18.70
2013,06,15,14,12,18.70
2013,06,15,14,13,18.70
2013,06,15,14,14,18.60
2013,06,15,14,15,18.50
2013,06,15,14,16,18.40
2013,06,15,14,17,18.30
2013,06,15,14,18,18.30
2013,06,15,14,19,18.20
2013,06,15,14,20,18.30
2013,06,15,14,21,18.40
2013,06,15,14,22,18.40
2013,06,15,14,23,18.50
2013,06,15,14,24,18.60
2013,06,15,14,25,18.60
2013,06,15,14,26,18.70
2013,06,15,14,27,18.80
2013,06,15,14,28,18.80
2013,06,15,14,29,18.80
2013,06,15,14,30,18.90
2013,06,15,14,31,18.90
2013,06,15,14,32,18.90
2013,06,15,14,33,18.90
2013,06,15,14,34,18.80
2013,06,15,14,35,18.80
2013,06,15,14,36,18.80
2013,06,15,14,37,18.80
2013,06,15,14,38,18.80
2013,06,15,14,39,18.70
2013,06,15,14,40,18.70
2013,06,15,14,41,18.80
2013,06,15,14,42,18.80
2013,06,15,14,43,18.90
2013,06,15,14,44,18.90
2013,06,15,14,45,19.00
2013,06,15,14,46,19.00
2013,06,15,14,47,19.00
2013,06,15,14,48,18.90
2013,06,15,14,49,18.90
2013,06,15,14,50,19.00
2013,06,15,14,51,19.00
2013,06,15,14,52,19.00
2013,06,15,14,53,19.00
2013,06,15,14,54,18.90
2013,06,15,14,55,18.90
2013,06,15,14,56,18.90
2013,06,15,14,57,18.80
2013,06,15,14,58,18.80
2013,06,15,14,59,18.80
2013,06,15,15,00,18.90
2013,06,15,15,01,18.90
2013,06,15,15,02,19.00
2013,06,15,15,03,19.10
2013,06,15,15,04,19.10
2013,06,15,15,05,19.00
2013,06,15,15,06,19.00
2013,06,15,15,07,18.90
2013,06,15,15,08,18.90
2013,06,15,15,09,18.90
2013,06,15,15,10,18.80
2013,06,15,15,11,18.80
2013,06,15,15,12,18.80
2013,06,15,15,13,18.80
2013,06,15,15,14,18.80
2013,06,15,15,15,18.80
2013,06,15,15,16,18.80
2013,06,15,15,17,18.80
2013,06,15,15,18,18.80
2013,06,15,15,19,18.80
2013,06,15,15,20,18.80
2013,06,15,15,21,18.90
2013,06,15,15,22,19.00
2013,06,15,15,23,19.00
2013,06,15,15,24,19.10
2013,06,15,15,25,19.10
2013,06,15,15,26,19.20
2013,06,15,15,27,19.20
2013,06,15,15,28,19.20
2013,06,15,15,29,19.20
2013,06,15,15,30,19.20
2013,06,15,15,31,19.20
2013,06,15,15,32,19.20
2013,06,15,15,33,19.20
2013,06,15,15,34,19.20
2013,06,15,15,35,19.30
2013,06,15,15,36,19.40
2013,06,15,15,37,19.40
2013,06,15,15,38,19.50
2013,06,15,15,39,19.60
2013,06,15,15,40,19.70
2013,06,15,15,41,19.70
2013,06,15,15,42,19.80
2013,06,15,15,43,19.80
2013,06,15,15,44,19.80
2013,06,15,15,45,19.80
2013,06,15,15,46,19.90
2013,06,15,15,47,19.90
2013,06,15,15,48,19.90
2013,06,15,15,49,19.90
2013,06,15,15,50,19.90
2013,06,15,15,51,19.90
2013,06,15,15,52,19.90
2013,06,15,15,53,19.90
2013,06,15,15,54,19.90
2013,06,15,15,55,19.90
2013,06,15,15,56,20.00
2013,06,15,15,57,20.00
2013,06,15,15,58,20.00
2013,06,15,15,59,19.90
2013,06,15,16,00,20.00
2013,06,15,16,01,20.00
2013,06,15,16,02,20.10
2013,06,15,16,03,20.10
2013,06,15,16,04,20.10
2013,06,15,16,05,20.10
2013,06,15,16,06,20.00
2013,06,15,16,07,20.00
2013,06,15,16,08,20.00
2013,06,15,16,09,20.00
2013,06,15,16,10,20.00
2013,06,15,16,11,20.00
2013,06,15,16,12,20.00
2013,06,15,16,13,19.90
2013,06,15,16,14,19.90
2013,06,15,16,15,19.90
2013,06,15,16,16,19.90
2013,06,15,16,17,19.90
2013,06,15,16,18,19.90
2013,06,15,16,19,20.00
2013,06,15,16,20,20.00
2013,06,15,16,21,20.00
2013,06,15,16,22,20.10
2013,06,15,16,23,20.10
2013,06,15,16,24,20.10
2013,06,15,16,25,20.10
2013,06,15,16,26,20.10
2013,06,15,16,27,20.10
2013,06,15,16,28,20.20
2013,06,15,16,29,20.20
2013,06,15,16,30,20.20
2013,06,15,16,31,20.20
2013,06,15,16,32,20.20
2013,06,15,16,33,20.20
2013,06,15,16,34,20.20
2013,06,15,16,35,20.10
2013,06,15,16,36,20.10
2013,06,15,16,37,20.10
2013,06,15,16,38,20.10
2013,06,15,16,39,20.10
2013,06,15,16,40,20.10
2013,06,15,16,41,20.10
2013,06,15,16,42,20.00
2013,06,15,16,43,20.00
2013,06,15,16,44,20.00
2013,06,15,16,45,20.00
2013,06,15,16,46,20.00
2013,06,15,16,47,20.10
2013,06,15,16,48,20.10
2013,06,15,16,49,20.20
2013,06,15,16,50,20.20
2013,06,15,16,51,20.30
2013,06,15,16,52,20.30
2013,06,15,16,53,20.30
2013,06,15,16,54,20.30
2013,06,15,16,55,20.40
2013,06,15,16,56,20.40
2013,06,15,16,57,20.40
2013,06,15,16,58,20.40
2013,06,15,16,59,20.40
2013,06,15,17,00,20.40
2013,06,15,17,01,20.40
2013,06,15,17,02,20.40
2013,06,15,17,03,20.40
2013,06,15,17,04,20.40
2013,06,15,17,05,20.50
2013,06,15,17,06,20.50
2013,06,15,17,07,20.50
2013,06,15,17,08,20.60
2013,06,15,17,09,20.60
2013,06,15,17,10,20.60
2013,06,15,17,11,20.60
2013,06,15,17,12,20.60
2013,06,15,17,13,20.60
2013,06,15,17,14,20.60
2013,06,15,17,15,20.60
2013,06,15,17,16,20.60
2013,06,15,17,17,20.60
2013,06,15,17,18,20.70
2013,06,15,17,19,20.80
2013,06,15,17,20,20.80
2013,06,15,17,21,20.80
2013,06,15,17,22,20.80
2013,06,15,17,23,20.80
2013,06,15,17,24,20.80
2013,06,15,17,25,20.80
2013,06,15,17,26,20.90
2013,06,15,17,27,20.90
2013,06,15,17,28,20.90
2013,06,15,17,29,21.00
2013,06,15,17,30,21.00
2013,06,15,17,31,21.00
2013,06,15,17,32,21.00
2013,06,15,17,33,21.00